STARLINK-1764, 46343

Orbit data source: Space-Track

STARLINK-1764, 46343 is a payload satellite owned by SpaceX/Seattle (US) in LEO that was launched on Thu, 03 Sep 2020 UTC via an FALCON 9 launch vehicle from the Air Force Eastern Test Range (AFETR). Payload-class satellites include a variety of spacecraft equipped with specific instruments for various scientific and technological missions. These include communications satellites like Starlink; space stations such as the ISS; scientific satellites like the Hubble; Earth observation satellites from companies like Planet Labs, Umbra, and HawkEye 360; GPS; miniature CubeSats for education and research; and military/defense satellites.

Not visible in the next 10 days
Identifier
46343, 2020-062U
Orbit
LEO
Country
Flag of USUS
Related business
Manufacturer
SpaceX/Seattle
Mission
Partially operational Commercial Communications
Bus & Motor
STARLINK, Unknown motor
Mass
260 kg wet, ~248 kg dry
Launch date (UTC)
2020-09-03 (6 years ago)
Launch vehicle
FALCON 9
Launch site
Air Force Eastern Test Range (AFETR)
Object type
Payload
Rocket body
Debris
Shape & HBR
Box + 1 Pan, 10.1 m
Radar Cross Section
13.562 m², Large (>1 m²)

Expand to show TLE details & history
Last TLE update: 3 hours ago

TLE from 3 hours ago
0 STARLINK-1764
1 46343U 20062U   26126.33335648  .00157144  00000-0  68493-3 0  9997
2 46343  53.0359  30.2201 0006553 141.2898  43.4452 15.83774084  6002
Epoch: 2026-05-06T08:00Z
TLE epoch observation values (Epoch: 2026-05-06T08:00:01.999Z)
Latitude
-3.92878°
Longitude
-131.03766°
Altitude
318.094 km
Speed
7.72 km/s
True Right ascension
14h 12m 39s
True Declination
-3° 54' 14"
Sunlit
Object was in full shadow at epoch
Visualization orbit readout
Latitude
Unknown
Longitude
Unknown
Altitude
Unknown
Speed
Unknown
Apparent Right ascension
Unknown
Apparent Declination
Unknown
Sunlit
N/A
Visualization observer readout
Local Sidereal Time
19:03:23
Azimuth
Unknown
Elevation
Unknown
Doppler factor
Unknown
Orbital elements
Apogee altitude
324.451 km
Perigee altitude
315.672 km
Semi-major axis
6,698.199 km
Eccentricity
0.00066
Inclination
53.0359°
RAAN
30.2201°
Arg. of periapsis
141.2898°
True anomaly
43.49687°
Mean anomaly
43.4452°
Eccentric anomaly
43.47103°
Mean motion
3.95919 °/min
Orbital period
90.93 mins
BSTAR
0.00068493
Loading maneuver chart data...
Computing Atmospheric mass density...

Documentation

Showing up to 5 results
|